Regional Weather Roundup
Issued by NWS Charleston, WV

Home | Current Version | Previous Version | Text Only | Print | Product List | Glossary Off
Versions: 1 2 3 4 5 6 7 8 9 10 11 12 13 14 15 16 17 18 19 20 21 22 23 24 25 26 27 28 29 30 31 32 33 34 35 36 37 38 39 40 41 42 43 44 45 46 47 48 49 50

000
ASUS41 KRLX 151410
RWRRLX
West Virginia Regional Weather Roundup
National Weather Service Charleston WV
900 AM EST FRI DEC 15 2017

Note: "fair" indicates few or no clouds below 12,000 feet with no
significant weather and/or obstructions to visibility.

WVZ003-151500-
Northern Panhandle of West Virginia

CITY           SKY/WX    TMP DP  RH WIND       PRES   REMARKS
WHEELING       MOSUNNY   16  13  88 CALM      29.96S
$$

WVZ009-151500-
Northwest West Virginia

CITY           SKY/WX    TMP DP  RH WIND       PRES   REMARKS
PARKERSBURG    CLOUDY    23  17  78 CALM      30.03S
$$

WVZ006-151500-
Western West Virginia

CITY           SKY/WX    TMP DP  RH WIND       PRES   REMARKS
HUNTINGTON     CLOUDY    26  18  71 CALM      30.02R
$$

WVZ015-151500-
West Central West Virginia

CITY           SKY/WX    TMP DP  RH WIND       PRES   REMARKS
CHARLESTON     CLOUDY    29  20  69 SW5       30.00R
$$

WVZ022-031-151500-
North Central West Virginia

CITY           SKY/WX    TMP DP  RH WIND       PRES   REMARKS
CLARKSBURG     CLOUDY    28  21  75 CALM      29.97R
MORGANTOWN     CLOUDY    26  20  77 CALM      29.96S
$$

WVZ025-035-042-045-151500-
Southern West Virginia

CITY           SKY/WX    TMP DP  RH WIND       PRES   REMARKS
BECKLEY        CLOUDY    28  21  75 W3        29.91R
LOGAN          CLOUDY    28  21  74 CALM      29.97R
BLUEFIELD      CLOUDY    27  21  78 CALM      29.90S
LEWISBURG      CLOUDY    28  22  77 CALM      29.92S
$$

WVZ047-151500-
Northern Mountains of West Virginia

CITY           SKY/WX    TMP DP  RH WIND       PRES   REMARKS
ELKINS         CLOUDY    27  19  72 CALM      29.92R
$$

WVZ052-151500-
Eastern Panhandle of West Virginia

CITY           SKY/WX    TMP DP  RH WIND       PRES   REMARKS
MARTINSBURG    CLOUDY    26  14  60 CALM      30.03F
PETERSBURG     CLOUDY    26  15  64 N3        30.00S
$$



USA.gov is the U.S. government's official web portal to all federal, state and local government web resources and services.